Starlink 33849

operational
NORAD ID: 63654 Int'l Des: 2025-083 Owner: SPXS Country: US Constellation: starlink
LEOCIRCULAR

About Starlink 33849

Description loading...

Live Position

Loading 3D Globe...

Upcoming Passes

Altitude History

Altitude vs Time

uPlot chart will show altitude changes over time

Two-Line Element Set

1 63654U 25083W 25352.66822935 .00025277 00000-0 92416-3 0 9998
2 63654 42.9965 102.9424 0001521 280.9984 79.0696 15.27606719 37676
Epoch: Dec 18, 2025 • Age: 14 hours

Current Status

Altitude 493.2 km
Velocity 7.62 km/s
Sub-Earth Point -37.73°S, 162.49°E
Launch Date Apr 25, 2025
Age 0.6 years
Type internet

Technical Details

Classification Payload
Mass 575.00 kg
Dry Mass 530.00 kg
Total Mass 575.00 kg
Length 0.30 m
Diameter 4.10 m
Span 29.00 m
Shape Box + pan
Manufacturer SPXS
Bus Type Starlink V2MO
Phase Status In Orbit
Owner/State SPXS/US

Large Constellations

Loading constellations...